Tracking 35334 objects as of 13-Sep-2026
HD Live streaming from Space Station
objects crossing your sky now

ATLAS 2A CENTAUR R/B


ATLAS 2A CENTAUR R/B is no longer on orbit


NORAD ID: 25674
Int'l Code: 1999-018B
Launch date: April 12, 1999
Source: United States (US)
Launch site: AIR FORCE EASTERN TEST RANGE (AFETR)
Decay date: 2001-09-27

Note: This is a ROCKET BODY
Your satellite tracking list
Your tracking list is empty




NASA's NSSDC Master Catalog

Two Line Element Set (TLE):
1 25674U 99018B   01270.18087117  .76981004 -12396-4  22201-2 0  9994
2 25674 018.7943 207.2825 0874903 051.0234 076.2223 14.48178827 25773
Source of the keplerian elements: AFSPC